This is the latest recevied weather packets stored in our database for station/object SP8PUB-10. If no packets are shown the sender has not sent any weather packets the latest 10 day(s).
| Time | Temp. | Humidity | Pressure | Rain* | Wind** | Luminosity | Snow |
|---|---|---|---|---|---|---|---|
| 1778105596 | 15.56° C | 74% | 1009.2 hPa | - | - | - | - |
| 1778104696 | 16.11° C | 73% | 1009.2 hPa | - | - | - | - |
| 1778103795 | 16.11° C | 71% | 1009.3 hPa | - | - | - | - |
| 1778102895 | 16.67° C | 69% | 1009.3 hPa | - | - | - | - |
| 1778101995 | 17.22° C | 67% | 1009.2 hPa | - | - | - | - |
| 1778101095 | 17.22° C | 66% | 1009 hPa | - | - | - | - |
| 1778100195 | 17.22° C | 65% | 1009 hPa | - | - | - | - |
| 1778099295 | 17.78° C | 65% | 1009.1 hPa | - | - | - | - |
| 1778098395 | 17.78° C | 64% | 1009.1 hPa | - | - | - | - |
| 1778097495 | 17.78° C | 64% | 1009.1 hPa | - | - | - | - |
| 1778096595 | 18.33° C | 63% | 1009.1 hPa | - | - | - | - |
| 1778095694 | 18.33° C | 62% | 1009 hPa | - | - | - | - |
| 1778094794 | 18.89° C | 61% | 1009 hPa | - | - | - | - |
| 1778093894 | 19.44° C | 59% | 1009 hPa | - | - | - | - |
| 1778092994 | 19.44° C | 58% | 1009 hPa | - | - | - | - |
| 1778092094 | 20° C | 58% | 1008.8 hPa | - | - | - | - |
| 1778091194 | 20.56° C | 56% | 1008.7 hPa | - | - | - | - |
| 1778090294 | 20.56° C | 56% | 1008.6 hPa | - | - | - | - |
| 1778089394 | 21.11° C | 54% | 1008.5 hPa | - | - | - | - |
| 1778088494 | 21.67° C | 54% | 1008.4 hPa | - | - | - | - |
| 1778087594 | 22.22° C | 53% | 1008.4 hPa | - | - | - | - |
| 1778086693 | 22.78° C | 51% | 1008.6 hPa | - | - | - | - |
| 1778085793 | 23.33° C | 50% | 1008.4 hPa | - | - | - | - |
| 1778084893 | 23.89° C | 49% | 1008.4 hPa | - | - | - | - |
| 1778083993 | 24.44° C | 47% | 1008.5 hPa | - | - | - | - |
* Rain since midnight (hover to see other rain measurements)
** Current wind speed in m/s (hover to see current wind gust speed)